Weather in Hefei

China     31°49′18″N   117°16′39″E
temp.,
°C
wind,
m/s
gust,
m/s
humid.,
%
clouds,
%
prec.,
mm/h
press.,
hPa
HPBL,
m
27 january, thu
thu2723:00+3ne4998100 1.0 1026650
02:00+3ne4898100 1.6 1026509
05:00+3nne4898100 1.0 1026458
08:00+2nne5998100 2.4 1028463
11:00+3ne51097100 1.4 1029488
14:00+4ne4896100 1.8 1027560
17:00+4ne4896100 0.6 1027630
20:00+4ne5997100 2.1 1028604
28 january, fri
fri2823:00+4ne4898100 1.8 1029747
02:00+2ene5998100 4.4 1029413
05:00+2ene5995100 1.2 1029604
08:00+1ene5893100 1.6 1030584
11:00+3ene5780100 0.1 1030809
14:00+3nne4697100 1.3 1028384
17:00+2nne4798100 0.9 1027383
20:00+2ne4799100 2.1 1029331
29 january, sat
sat2923:00+2ne469677 0.6 1029369
02:00+1ne369894 0.7 1028312
05:00+1ne2591100 0.0 1027260
08:00+2nne2386100 0.0 1028199
11:00+4ne2369100 0.0 1028715
14:00+5ene3359100 0.0 10241145
17:00+4e2357100 0.0 1024986
20:00+4e2265100 0.0 1025169
30 january, sun
sun3023:00+3sw2383100 0.0 1025167
02:00+2w1185100 0.0 1025120
05:00+1w11876 0.0 102543
08:00+2sse11838 0.0 102789
11:00+5ese236310 0.0 1027864
14:00+7sse33526 0.0 10261314
17:00+7ese345792 0.0 10241025
20:00+6wsw1167100 0.0 1027115
31 january, mon
mon3123:00+5wnw227698 0.0 1027108
02:00+4nw2381100 0.0 1027144
05:00+4wnw2381100 0.0 1025128
08:00+4w3781100 0.0 1027339
11:00+6nw7956100 0.0 1029806
14:00+7nw7836100 0.0 10261393
17:00+6nw464084 0.0 1027618
20:00+4n3452100 0.0 1029179